DELTA 1 DEB, 7168

Orbit data source: Space-Track

DELTA 1 DEB, 7168 is space debris in SSO originally from a launch on Tue, 06 Nov 1973 UTC launched from the Air Force Western Test Range (AFWTR). Debris objects in space refer to the collection of defunct objects orbiting the Earth. Examples of debris include non-operational satellites, rocket bodies, and fragments generated from explosions, collisions, or faulty payload assembly.

Loading next visibility...
Identifier
7168, 1973-086EG
Orbit
SSO
Country
Flag of USUS
Related business
Manufacturer
Unknown
Mission
Spacecraft
Bus & Motor
Unknown
Mass
Unknown
Launch date (UTC)
1973-11-06 (53 years ago)
Launch vehicle
Unknown
Launch site
Air Force Western Test Range (AFWTR)
Object type
Payload
Rocket body
Debris
Shape & HBR
Unknown shape, 0.1 m
Radar Cross Section
Medium (>0.1 m² and <1 m²)

Expand to show TLE details & history
Last TLE update: 4 days ago

TLE from 4 days ago
0 DELTA 1 DEB
1 07168U 73086EG  26260.90357483  .00000331  00000-0  38334-2 0  9991
2 07168 102.3209  29.7308 0180634 329.0877 155.4366 12.11381508549703
Epoch: 2026-09-17T21:41Z
TLE epoch observation values (Epoch: 2026-09-17T21:41:08.865Z)
Latitude
52.90514°
Longitude
-95.68268°
Altitude
1,770.703 km
Speed
6.942 km/s
True Right ascension
15h 05m 45s
True Declination
52° 45' 37"
Sunlit
Object was in daylight at epoch
Visualization orbit readout
Latitude
Unknown
Longitude
Unknown
Altitude
Unknown
Speed
Unknown
Apparent Right ascension
Unknown
Apparent Declination
Unknown
Sunlit
N/A
Visualization observer readout
Local Sidereal Time
06:00:04
Azimuth
Unknown
Elevation
Unknown
Doppler factor
Unknown
Orbital elements
Apogee altitude
1,772.549 km
Perigee altitude
1,483.316 km
Semi-major axis
8,006.069 km
Eccentricity
0.01806
Inclination
102.3209°
RAAN
29.7308°
Arg. of periapsis
329.0877°
True anomaly
156.2797°
Mean anomaly
155.4366°
Eccentric anomaly
155.85987°
Mean motion
3.0298 °/min
Orbital period
118.82 mins
BSTAR
0.0038334
Loading maneuver chart data...
Computing Atmospheric mass density...
Loading historical data...
Loading historical data...
Loading historical data...
Loading historical data...
Loading historical data...
Loading historical data...
Loading historical data...

Documentation

Showing up to 5 results
|